This is the latest recevied weather packets stored in our database for station/object N1YZ. If no packets are shown the sender has not sent any weather packets the latest 10 day(s).
| Time | Temp. | Humidity | Pressure | Rain* | Wind** | Luminosity | Snow |
|---|---|---|---|---|---|---|---|
| 1788385691 | 33.89° C | 53% | 1035.2 hPa | 0 mm | - | 51 W/m² | - |
| 1788385390 | 34.44° C | 54% | 1035.4 hPa | 0 mm | - | 55 W/m² | - |
| 1788385086 | 35° C | 49% | 1035.1 hPa | 0 mm | - | 51 W/m² | - |
| 1788384780 | 34.44° C | 51% | 1035.6 hPa | 0 mm | - | 253 W/m² | - |
| 1788384479 | 34.44° C | 52% | 1035.3 hPa | 0 mm | - | 51 W/m² | - |
| 1788384176 | 34.44° C | 53% | 1035.3 hPa | 0 mm | - | 57 W/m² | - |
| 1788383871 | 34.44° C | 52% | 1035.4 hPa | 0 mm | - | 56 W/m² | - |
| 1788383567 | 33.89° C | 51% | 1035.2 hPa | 0 mm | - | 60 W/m² | - |
| 1788383262 | 34.44° C | 53% | 1035.3 hPa | 0 mm | - | 58 W/m² | - |
| 1788382957 | 34.44° C | 50% | 1035.4 hPa | 0 mm | - | 60 W/m² | - |
| 1788382655 | 34.44° C | 47% | 1035.6 hPa | 0 mm | - | 63 W/m² | - |
| 1788382350 | 35° C | 50% | 1035.5 hPa | 0 mm | - | 126 W/m² | - |
| 1788382046 | 35° C | 48% | 1035.7 hPa | 0 mm | - | 65 W/m² | - |
| 1788381741 | 35.56° C | 46% | 1035.7 hPa | 0 mm | - | 83 W/m² | - |
| 1788381436 | 35.56° C | 49% | 1035.5 hPa | 0 mm | - | 69 W/m² | - |
| 1788381136 | 35.56° C | 50% | 1035.6 hPa | 0 mm | - | 74 W/m² | - |
| 1788380830 | 35° C | 49% | 1035.7 hPa | 0 mm | - | 309 W/m² | - |
| 1788380527 | 35° C | 53% | 1035.8 hPa | 0 mm | - | 74 W/m² | - |
| 1788380223 | 35° C | 55% | 1035.9 hPa | 0 mm | - | 96 W/m² | - |
| 1788379922 | 35° C | 50% | 1035.9 hPa | 0 mm | - | 94 W/m² | - |
| 1788379612 | 35° C | 50% | 1035.9 hPa | 0 mm | - | 120 W/m² | - |
| 1788379307 | 35.56° C | 49% | 1035.7 hPa | 0 mm | - | 113 W/m² | - |
| 1788379002 | 35° C | 49% | 1036 hPa | 0 mm | - | 72 W/m² | - |
| 1788378697 | 35.56° C | 47% | 1036.1 hPa | 0 mm | - | 70 W/m² | - |
| 1788378395 | 35.56° C | 52% | 1036.1 hPa | 0 mm | - | 74 W/m² | - |
* Rain latest hour (hover to see other rain measurements)
** Current wind speed in m/s (hover to see current wind gust speed)